Other Surface Observations
Issued by NWS Charleston, SC

Home | Current Version | Previous Version | Text Only | Print | Product List | Glossary On
Versions: 1 2 3 4 5 6 7 8 9 10 11 12 13 14 15 16 17 18 19 20 21 22 23 24 25 26 27 28 29 30 31 32 33 34 35 36 37 38 39 40 41 42 43 44 45 46 47 48 49 50
150
SXUS52 KCHS 110713
OSOCHS

MARINE OBSERVATIONS
NATIONAL WEATHER SERVICE CHARLESTON SC
200 AM EST THU FEB 11 2016

...DOWNTOWN CHARLESTON AND HARBOR...

CITY           SKY/WX    TMP DP  RH WIND       PRES   REMARKS
WATERFRONT PRK   N/A     36  19  50 W5        30.01S WCI  32

...LAKE MOULTRIE...

CITY           SKY/WX    TMP DP  RH WIND       PRES   REMARKS
PINOPOLIS        N/A     36  19  51 W10       30.08R WCI  28

...LAKE AND SUPPLEMENTAL COASTAL OBSERVATIONS...

STATION/POSITION TIME  TEMP    WIND        PRES    WAVE   SWELL
                       AIR SEA DIR/SP/G            HT/PER HT/PER/DIR
                 (UTC) (F)     (DEG/KT/KT) (MB)    (FT/S) (FT/S/D)
FORT PULASKI     0600   39 50  250/ 11/ 15 1023.0R
SAPELO ISLAND    0600   39     280/  5     1023.0S
WINYAH BAY       NOT AVBL
LAKE MURRAY      0600   34     280/ 11/ 16 1019.6R
ACE BASIN NERRS  NOT AVBL


...C-MAN AND BUOY OBSERVATIONS...

STATION/POSITION TIME  TEMP    WIND        PRES    WAVE   SWELL
                       AIR SEA DIR/SP/G            HT/PER HT/PER/DIR
                 (UTC) (F)     (DEG/KT/KT) (MB)    (FT/S) (FT/S/D)
BUOY 41004       0650   46 63  280/ 25/ 31 1020.3R   8/ 7
BUOY 41008       0650   44 52  280/ 19/ 21 1023.2R   3/ 3
FOLLY BEACH CMAN 0700   34     260/  3/  5 1022.2R
CAPERS NS BUOY   0608   40     290/ 16/ 19 1021.1R
FRIPP NS BUOY    0600   43     280/ 19/ 21 1021.3R
5E ST. MARYS GA  0621      55                N/A     2/15   2/ 90/15


STATION/POSITION TIME  TEMP    WIND        PRES    WAVE   SWELL
                       AIR SEA DIR/SP/G            HT/PER HT/PER/DIR
                 (UTC) (F)     (DEG/KT/KT) (MB)    (FT/S) (FT/S/D)
FRYING PAN BUOY  0600   43 60  280/ 25/ 35 1019.6R
BUOY 41025       0650   39 71  300/ 27/ 33 1016.4R   8/ 7   2/120/13
CAPE LOOKOUT NC  NOT AVBL
BUOY 41002       0650   52 68  290/ 25/ 33   N/A    15/ 9
BUOY 41010       0620   60 72              1021.8F
ST AUGUSTINE FL  0700   37 55  250/  4/  5 1025.1R

$$




USA.gov is the U.S. government's official web portal to all federal, state and local government web resources and services.